Retour au catalogue

DELTA 1 DEB

ActifSSO
NORAD 7083·DEBRIS·🇺🇸 United States

Lancé Nov 6, 1973 depuis Vandenberg Space Force Base

Loading…

Prochains Passages (prochaines 24 heures)

TLE

FraisSource: Space-Track

Époque: Sep 13, 2026, 23:28 UTC

1 07083U 73086CB  26256.97829778  .00000007  00000-0  43601-3 0  9994
2 07083 102.4484 271.5224 0067162  36.2123 353.3779 12.32628073374910

Suivez DELTA 1 DEB en temps réel avec AllMySat

Download on the App Store